Location: Kumla
(59.1265°N, 15.1401°E)
Time: 18:24:00
(UTC+01:00)

Transit 2A - Pass Details

Date: 07 December 2023
Orbit: 600 x 953 km, 66.7° (Epoch: 27 February)

Event Time Altitude Azimuth Distance (km) Brightness Sun altitude
Rises 18:15:28 0° 268° (W) 3,022 10.6 -22.4°
Reaches altitude 10° 18:18:01 10° 277° (W) 2,062 9.3 -22.7°
Maximum altitude 18:22:16 36° 345° (NNW) 1,005 6.6 -23.3°
Enters shadow 18:22:52 34° 3° (N) 1,032 6.6 -23.3°
Drops below altitude 10° 18:26:19 10° 52° (NE) 1,965 - -23.8°
Sets 18:28:42 0° 62° (ENE) 2,859 - -24.1°
